COSMOS 1261 DEB, 48264

Orbit data source: Space-Track

COSMOS 1261 DEB, 48264 is space debris in HEO originally from a launch on Tue, 31 Mar 1981 UTC launched from the Plesetsk Missile And Space Complex (PKMTR). Debris objects in space refer to the collection of defunct objects orbiting the Earth. Examples of debris include non-operational satellites, rocket bodies, and fragments generated from explosions, collisions, or faulty payload assembly.

Not visible in the next 10 days
COSMOS 1261 DEB details
Identifier
48264, 1981-031P
Orbit
HEO
Last TLE update22 hours ago
Origin
Flag of CISGUKOS (CIS)
ManufacturerUnknown
MissionSpacecraft
Bus & MotorUnknown
MassUnknown
Launch date (UTC)
1981-03-31 (44 years ago)
Launch vehicleUnknown
Launch site
Plesetsk Missile And Space Complex (PKMTR)
Object type
Payload
Rocket body
Debris
Shape & HBRUnknown
Radar Cross SectionMedium (>0.1 m² and <1 m²)

Expand to show TLE details & history

TLE from 22 hours ago
0 COSMOS 1261 DEB
1 48264U 81031P   25035.36793762  .00145115  15670-6  37461-2 0  9990
2 48264  62.2557  66.2682 7441599  52.7687 354.2921  2.12405885 82413
Epoch: 2025-02-04T08:49Z
Definitive object data (Epoch: 2025-02-04T08:49:49.81Z)
Latitude0.00011°
Longitude159.03371°
Altitude1,468.093 km
Speed9.275 km/s
True Right ascension04h 25m 03s
True Declination0° 00' 00"
Sunlit
Object was in daylight at TLE epoch
Visualization TLE readout
Latitude-46.70469°
Longitude125.0165°
Altitude8,427.645 km
Speed6.187 km/s
Apparent Right ascension00h 36m 50s
Apparent Declination-50° 31' 10"
Sunlit
Object is in daylight
Visualization observer readout
Local Sidereal Time08:59:46
Azimuth235.575° WSW
Elevation-51.267°
Doppler factor1
Orbital elements
Apogee altitude38,207.352 km
Perigee altitude161.834 km
Semi-major axis25,562.73 km
Eccentricity0.7441599
Inclination62.2557°
RAAN66.2682°
Arg. of periapsis52.7687°
True anomaly308.44136°
Mean anomaly354.2921°
Eccentric anomaly339.04026°
Mean motion0.53105 °/min
BSTAR0.0037461
Orbital period677.91 mins
Loading maneuver chart data...
Loading historical data...
Loading historical data...
Loading historical data...
Loading historical data...
Loading historical data...
Loading historical data...
Loading historical data...

COSMOS 1261 DEB Visibility forecast

Observer location: undefined°, undefined

COSMOS 1261 DEB is not visible in the next 10 days
Span
Click to sort rows by Start time (UTC) header in descending order
Start Az.
Max El. time (UTC)
Max El. Az.
Max El.
End time (UTC)
End Az.
|